Terminal Aerodrome Forecast
Issued by NWS Detroit/Pontiac, MI

Home | Current Version | Previous Version | Text Only | Print | Product List | Glossary On
Versions: 1 2 3 4 5 6 7 8 9 10 11 12 13 14 15 16 17 18 19 20 21 22 23 24 25 26 27 28 29 30 31 32 33 34
160
FTUS43 KDTX 210304 AAB
TAFDTW
TAF AMD
KDTW 210304Z 2103/2206 18003KT 1 1/2SM BR BKN003 OVC015
      TEMPO 2103/2105 1/2SM FG OVC003
     FM210500 VRB03KT 3/4SM BR OVC003
      TEMPO 2105/2107 1/4SM FG VV002
     FM210700 VRB03KT 1/4SM FG VV002
     FM211400 17008KT 1SM BR OVC002
     FM211700 18008KT 3SM BR OVC006
     FM212000 18008KT 6SM BR SCT010 OVC020=

USA.gov is the U.S. government's official web portal to all federal, state and local government web resources and services.